STARLINK-34503

Last updated on Thu Jul 03 2025 00:02:07 GMT+0000 (Coordinated Universal Time)

1 64420U 25129J 25183.58335648 -.01554469 00000+0 -18447-1 0 9996 2 64420 69.9998 351.5645 0003296 264.7823 22.1877 15.63975378 3520
UTC large
Height (km)
Speed (km/s)
/
Latitude / Longitude
Inclination (degrees)
Orbital Period (minutes)
Azimuth
Elevation
Range (km)
Doppler Factor

Next 0 passes for location: London (51.5072 / 0.1276)

Sorry there are no passes over London.